Weather History for Richmond, KY

Change the Weather History Date:

Tuesday, February 19, 2013

  Actual Average (KLOZ) Record (KLOZ)
Temperature  
Mean Temperature 37 °F 40 °F  
Max Temperature 48 °F 51 °F 72 °F (1994)
Min Temperature 26 °F 30 °F -2 °F (1958)
Degree Days  
Heating Degree Days 28 24  
Month to date heating degree days 503  
Since 1 July heating degree days 3066  
Cooling Degree Days 0 0  
Month to date cooling degree days 0  
Year to date cooling degree days 0  
Moisture  
Dew Point 27 °F    
Average Humidity 67    
Maximum Humidity 93    
Minimum Humidity 39    
Precipitation  
Precipitation 0.00 in 0.14 in 1.33 in (1991)
Month to date precipitation 2.48  
Year to date precipitation 6.02  
Sea Level Pressure  
Sea Level Pressure 29.95 in    
Wind  
Wind Speed 18 mph (WSW)    
Max Wind Speed 25 mph    
Max Gust Speed 38 mph    
Visibility 10 miles    
Events      
T = Trace of Precipitation, MM = Missing Value Source: NWS Daily Summary

Daily Weather History Graph

Daily Weather History Graph

Search for Another Location

Airport:

Trip Planner

Search our weather history database for the weather conditions in past years. The results will help you decide how hot, cold, wet, or windy it might be!

Date:

Astronomy

Feb. 19, 2013 Rise Set
Actual Time 7:21 AM EST 6:21 PM EST
Civil Twilight 6:55 AM EST 6:47 PM EST
Nautical Twilight 6:24 AM EST 7:18 PM EST
Astronomical Twilight 5:54 AM EST 7:48 PM EST
Moon 12:55 PM EST (2/19) 2:49 AM EST (2/19)
Length of Visible Light 11h 52m
Length of Day
10h 59m
Waxing Gibbous, 67% of the Moon is Illuminated
Feb 19
Waxing Gibbous
Feb 25
Full
Mar 4
Last Quarter
Mar 11
New
Mar 19
First Quarter

Hourly Weather History & Observations

Time (EST) Temp. Windchill Dew Point Humidity Pressure Visibility Wind Dir Wind Speed Gust Speed Precip Events Conditions
12:15 AM 48.2 °F - 33.8 °F 58% 29.85 in 10.0 mi SSW 20.7 mph 29.9 mph N/A   Overcast
12:35 AM 46.4 °F 38.1 °F 35.6 °F 66% 29.86 in 7.0 mi SSW 24.2 mph 34.5 mph N/A   Overcast
12:55 AM 44.6 °F 36.6 °F 37.4 °F 76% 29.86 in 5.0 mi SSW 19.6 mph 35.7 mph N/A   Overcast
1:15 AM 42.8 °F 35.8 °F 37.4 °F 81% 29.82 in 10.0 mi South 13.8 mph 19.6 mph N/A   Overcast
1:55 AM 42.8 °F 34.5 °F 37.4 °F 81% 29.85 in 10.0 mi SSW 18.4 mph 26.5 mph N/A   Overcast
2:15 AM 42.8 °F 34.5 °F 37.4 °F 81% 29.84 in 10.0 mi SSW 18.4 mph 26.5 mph N/A   Overcast
2:55 AM 42.8 °F 34.3 °F 35.6 °F 76% 29.82 in 10.0 mi South 19.6 mph 31.1 mph N/A   Mostly Cloudy
3:15 AM 42.8 °F 33.8 °F 35.6 °F 76% 29.81 in 10.0 mi SSW 21.9 mph 29.9 mph N/A   Mostly Cloudy
3:35 AM 42.8 °F 34.0 °F 35.6 °F 76% 29.80 in 10.0 mi South 20.7 mph 34.5 mph N/A   Scattered Clouds
3:55 AM 42.8 °F 34.0 °F 35.6 °F 76% 29.79 in 10.0 mi South 20.7 mph 31.1 mph N/A   Scattered Clouds
4:15 AM 42.8 °F 34.0 °F 35.6 °F 76% 29.78 in 10.0 mi South 20.7 mph 35.7 mph N/A   Overcast
4:35 AM 42.8 °F 33.8 °F 35.6 °F 76% 29.78 in 10.0 mi South 21.9 mph 38.0 mph N/A   Overcast
4:55 AM 42.8 °F 35.1 °F 35.6 °F 76% 29.78 in 10.0 mi South 16.1 mph 28.8 mph N/A   Overcast
5:15 AM 41.0 °F 31.9 °F 35.6 °F 81% 29.79 in 10.0 mi South 19.6 mph 28.8 mph N/A   Overcast
5:35 AM 41.0 °F 32.2 °F 35.6 °F 81% 29.79 in 10.0 mi South 18.4 mph 25.3 mph N/A   Overcast
5:55 AM 41.0 °F 32.5 °F 37.4 °F 87% 29.80 in 10.0 mi SSW 17.3 mph 23.0 mph N/A   Overcast
6:15 AM 41.0 °F 33.5 °F 37.4 °F 87% 29.81 in 7.0 mi SSW 13.8 mph 23.0 mph N/A   Overcast
6:35 AM 41.0 °F 33.5 °F 37.4 °F 87% 29.83 in 7.0 mi SW 13.8 mph 18.4 mph N/A   Overcast
6:55 AM 41.0 °F 33.5 °F 37.4 °F 87% 29.83 in 7.0 mi SW 13.8 mph 20.7 mph N/A   Overcast
7:15 AM 39.2 °F 29.6 °F 37.4 °F 93% 29.85 in 10.0 mi WNW 19.6 mph 25.3 mph N/A   Overcast
7:35 AM 35.6 °F 25.5 °F 33.8 °F 93% 29.88 in 4.0 mi West 17.3 mph 25.3 mph N/A   Overcast
7:55 AM 35.6 °F 28.0 °F 33.8 °F 93% 29.88 in 10.0 mi West 10.4 mph - N/A   Overcast
8:15 AM 37.4 °F 28.2 °F 35.6 °F 93% 29.89 in 10.0 mi West 16.1 mph 23.0 mph N/A   Overcast
8:35 AM 37.4 °F 28.5 °F 33.8 °F 87% 29.90 in 10.0 mi West 15.0 mph 25.3 mph N/A   Overcast
8:55 AM 37.4 °F 28.2 °F 33.8 °F 87% 29.91 in 10.0 mi West 16.1 mph - N/A   Overcast
9:15 AM 37.4 °F 26.9 °F 32.0 °F 81% 29.92 in 10.0 mi West 20.7 mph 29.9 mph N/A   Overcast
9:35 AM 35.6 °F 25.5 °F 32.0 °F 87% 29.93 in 10.0 mi West 17.3 mph 26.5 mph N/A   Overcast
10:15 AM 35.6 °F 25.2 °F 28.4 °F 75% 29.94 in 10.0 mi West 18.4 mph 28.8 mph N/A   Overcast
10:35 AM 35.6 °F 25.5 °F 28.4 °F 75% 29.95 in 10.0 mi West 17.3 mph 28.8 mph N/A   Mostly Cloudy
10:55 AM 35.6 °F 24.0 °F 28.4 °F 75% 29.94 in 10.0 mi West 23.0 mph 27.6 mph N/A   Mostly Cloudy
11:15 AM 39.2 °F 30.8 °F 28.4 °F 65% 29.94 in 10.0 mi West 15.0 mph 29.9 mph N/A   Mostly Cloudy
11:35 AM 39.2 °F 29.0 °F 26.6 °F 61% 29.95 in 10.0 mi West 21.9 mph 33.4 mph N/A   Mostly Cloudy
11:55 AM 37.4 °F 27.2 °F 28.4 °F 70% 29.95 in 10.0 mi West 19.6 mph 25.3 mph N/A   Overcast
12:15 PM 37.4 °F 27.5 °F 28.4 °F 70% 29.96 in 10.0 mi West 18.4 mph 24.2 mph N/A   Overcast
12:35 PM 39.2 °F 29.6 °F 28.4 °F 65% 29.95 in 10.0 mi West 19.6 mph 27.6 mph N/A   Mostly Cloudy
12:55 PM 39.2 °F 30.2 °F 26.6 °F 61% 29.95 in 10.0 mi WNW 17.3 mph 33.4 mph N/A   Mostly Cloudy
1:15 PM 41.0 °F 31.9 °F 26.6 °F 57% 29.95 in 10.0 mi West 19.6 mph 25.3 mph N/A   Overcast
1:35 PM 39.2 °F 29.0 °F 24.8 °F 56% 29.95 in 10.0 mi West 21.9 mph 31.1 mph N/A   Mostly Cloudy
1:55 PM 39.2 °F 30.2 °F 23.0 °F 52% 29.95 in 10.0 mi West 17.3 mph 29.9 mph N/A   Scattered Clouds
2:15 PM 41.0 °F 32.5 °F 24.8 °F 53% 29.96 in 10.0 mi West 17.3 mph 25.3 mph N/A   Scattered Clouds
2:35 PM 39.2 °F 30.2 °F 21.2 °F 49% 29.96 in 10.0 mi West 17.3 mph 31.1 mph N/A   Scattered Clouds
2:55 PM 41.0 °F 31.6 °F 23.0 °F 49% 29.96 in 10.0 mi West 20.7 mph 26.5 mph N/A   Scattered Clouds
3:15 PM 41.0 °F 30.7 °F 21.2 °F 45% 29.97 in 10.0 mi West 25.3 mph 28.8 mph N/A   Scattered Clouds
3:35 PM 41.0 °F 32.2 °F 21.2 °F 45% 29.98 in 10.0 mi West 18.4 mph 26.5 mph N/A   Clear
3:55 PM 41.0 °F 31.9 °F 17.6 °F 39% 29.99 in 10.0 mi West 19.6 mph 29.9 mph N/A   Scattered Clouds
4:15 PM 41.0 °F 32.2 °F 19.4 °F 42% 29.99 in 10.0 mi West 18.4 mph 25.3 mph N/A   Scattered Clouds
4:35 PM 41.0 °F 32.5 °F 17.6 °F 39% 30.00 in 10.0 mi West 17.3 mph 27.6 mph N/A   Clear
4:55 PM 39.2 °F 29.3 °F 15.8 °F 39% 30.01 in 10.0 mi West 20.7 mph 33.4 mph N/A   Clear
5:15 PM 39.2 °F 29.0 °F 17.6 °F 42% 30.01 in 10.0 mi West 21.9 mph 26.5 mph N/A   Clear
5:35 PM 39.2 °F 30.5 °F 17.6 °F 42% 30.02 in 10.0 mi West 16.1 mph 26.5 mph N/A   Clear
6:15 PM 37.4 °F 26.6 °F 15.8 °F 41% 30.04 in 10.0 mi West 21.9 mph 29.9 mph N/A   Clear
6:35 PM 35.6 °F 25.2 °F 15.8 °F 44% 30.05 in 10.0 mi West 18.4 mph 24.2 mph N/A   Clear
7:35 PM 33.8 °F 25.3 °F 17.6 °F 52% 30.08 in 10.0 mi West 11.5 mph - N/A   Clear
7:55 PM 32.0 °F 23.6 °F 17.6 °F 55% 30.10 in 10.0 mi West 10.4 mph - N/A   Clear
8:35 PM 32.0 °F 25.6 °F 17.6 °F 55% 30.10 in 10.0 mi West 6.9 mph - N/A   Clear
8:55 PM 30.2 °F 23.4 °F 17.6 °F 60% 30.10 in 10.0 mi West 6.9 mph - N/A   Clear
9:15 PM 30.2 °F 21.9 °F 17.6 °F 60% 30.10 in 10.0 mi West 9.2 mph - N/A   Clear
9:35 PM 30.2 °F 22.6 °F 17.6 °F 60% 30.11 in 10.0 mi West 8.1 mph - N/A   Clear
9:55 PM 28.4 °F 22.2 °F 17.6 °F 64% 30.11 in 10.0 mi West 5.8 mph - N/A   Clear
10:15 PM 28.4 °F 22.2 °F 17.6 °F 64% 30.12 in 10.0 mi West 5.8 mph - N/A   Clear
10:35 PM 28.4 °F 20.4 °F 17.6 °F 64% 30.12 in 10.0 mi West 8.1 mph - N/A   Clear
10:55 PM 28.4 °F 21.2 °F 17.6 °F 64% 30.13 in 10.0 mi West 6.9 mph - N/A   Clear
11:15 PM 26.6 °F 18.2 °F 19.4 °F 74% 30.13 in 10.0 mi West 8.1 mph - N/A   Clear
11:35 PM 28.4 °F 20.4 °F 19.4 °F 69% 30.14 in 10.0 mi West 8.1 mph - N/A   Clear
11:55 PM 26.6 °F 18.2 °F 17.6 °F 69% 30.14 in 10.0 mi West 8.1 mph - N/A   Clear